Location: Observatory
(52.1446°N, 0.4624°W)
Time: 14:09:29
(UTC+01:00)

ISS - Pass Details

Date: 14 October 2017
Orbit: 401 x 408 km, 51.6° (Epoch: 18 October)

Event Time Altitude Azimuth Distance (km) Brightness Sun altitude
Rises 19:48:02 0° 276° (W) 2,325 1.9 -15.9°
Reaches altitude 10° 19:51:31 10° 237° (WSW) 1,462 -0.3 -16.4°
Maximum altitude 19:52:21 11° 222° (SW) 1,417 -0.6 -16.5°
Drops below altitude 10° 19:53:12 10° 207° (SSW) 1,461 -0.8 -16.7°
Enters shadow 19:55:36 - 176° (S) 1,977 -0.5 -17.0°
